Regional Weather Roundup
Issued by NWS

Home | Current Version | Previous Version | Text Only | Print | Product List | Glossary On
Versions: 1 2 3 4 5 6 7 8 9 10 11 12 13 14 15 16 17 18 19 20 21 22 23 24 25 26 27 28 29 30 31 32 33 34 35 36 37 38 39 40 41 42 43 44 45 46 47 48 49 50
000
ASUS42 KFFC 260803
RWRGA
WEATHER ROUNDUP FOR GEORGIA
NATIONAL WEATHER SERVICE PEACHTREE CITY GA
300 AM EST MON JAN 26 2015

NOTE: "FAIR" INDICATES FEW OR NO CLOUDS BELOW 12,000 FEET WITH NO
SIGNIFICANT WEATHER AND/OR OBSTRUCTIONS TO VISIBILITY.

* = USE WITH CAUTION. THE STATIONS MARKED WITH AN ASTERISK MAY NOT
REPORT WEATHER SUCH AS PRECIPITATION, FOG, OR THUNDER AND ARE NOT
QUALITY CONTROLLED BY NWS.

THE REMARK "TC" DENOTES TEMPERATURE READING IN DEGREES CELSIUS.

GAZ001>058-260900-
NORTH GEORGIA

CITY           SKY/WX    TMP DP  RH WIND       PRES   REMARKS
ATLANTA        MOCLDY    44  40  85 W13G21    29.73S
ATHENS         PTCLDY    43  38  82 SW5       29.71S
CHAMBLEE       CLOUDY    43  39  86 W8        29.72S
PEACHTREE CITY MOCLDY    45  40  82 W8        29.76S
ROME           CLOUDY    46  39  76 W8        29.74R
WEST ATLANTA   CLOUDY    44  39  82 W10       29.74R
GAINESVILLE    CLOUDY    44  40  85 W9        29.70S
CARTERSVILLE   CLOUDY    43  38  82 VRB3      29.75S


CITY           SKY/WX    TMP DP  RH WIND       PRES   REMARKS
DALTON*        CLOUDY    45  41  87 CALM      29.73R
MARIETTA       MOCLDY    43  41  93 W16       29.72S
$$

GAZ059>098-102>109-260900-
CENTRAL GEORGIA

CITY           SKY/WX    TMP DP  RH WIND       PRES   REMARKS
AUGUSTA-BUSH   MOCLDY    48  39  71 W13       29.72F
AUGUSTA-DANIEL PTCLDY    49  40  71 VRB7      29.72F
COLUMBUS       CLOUDY    47  40  76 NW8       29.80R
MACON          CLEAR     46  40  79 SW5       29.76F
ROBINS AFB     CLEAR     48  41  76 SW5       29.73F


CITY           SKY/WX    TMP DP  RH WIND       PRES   REMARKS
LAGRANGE*      PTCLDY    46  43  90 W6        29.79S
SYLVANIA*      PTCLDY    43  42  96 CALM      29.76F
MILLEDGEVILLE* CLEAR     41  41 100 CALM      29.74F
$$

GAZ099>101-110>166-260900-
SOUTH GEORGIA

CITY           SKY/WX    TMP DP  RH WIND       PRES   REMARKS
SAVANNAH       PTCLDY    49  43  80 SW7       29.77F
VALDOSTA       MOCLDY    50  48  93 CALM      29.80F
ALMA           MOCLDY    48  46  93 SW5       29.79S
ST SIMONS      CLOUDY    52  47  83 SW10      29.80F
FT STEWART     PTCLDY    47  44  87 SW3       29.76F
ALBANY         CLEAR     50  46  86 W7        29.83S
HUNTER AFB     PTCLDY    50  46  87 SW6       29.75F
MOODY AFB      MOCLDY    51  48  92 SW5       29.79F
BRUNSWICK      CLOUDY    52  46  82 SW8       29.80F


CITY           SKY/WX    TMP DP  RH WIND       PRES   REMARKS
BAINBRIDGE*    CLEAR     54  50  87 W9        29.83S
MOULTRIE*      CLEAR     50  48  93 W3        29.82R
VIDALIA*       PTCLDY    46  46 100 SW6       29.77S
WAYCROSS*      MOCLDY    53  51  93 SW6       29.79F
DOUGLAS*       PTCLDY    48  46  93 W3        29.80S
$$



USA.gov is the U.S. government's official web portal to all federal, state and local government web resources and services.